{"data":{"norad_id":61561,"intl_designator":"2024-185K","name":"QIANFAN-28","alt_names":[],"object_type":"PAYLOAD","status":"ACTIVE","operator":null,"country":"PRC","launch_date":"2024-10-15","launch_site_code":"TAISC","launch_vehicle":null,"mission":null,"orbit_class":"UNKNOWN","rcs_meters":null,"size_class":null,"mass_kg":null,"dimensions":null,"purposes":[],"wikipedia_slug":null,"has_3d_model":false,"image_url":null,"decayed_at":null,"tle_current":{"epoch":"2026-05-25T02:48:28.603872Z","epoch_age_seconds":65733,"freshness":"FRESH","line1":"1 61561U 24185K   26145.11699773  .00000623  00000+0  24347-3 0  9993","line2":"2 61561  88.9855  57.7903 0009456 103.6997 256.5251 14.28349052 93493","mean_motion":14.28349052,"eccentricity":0.0009456,"inclination_deg":88.9855,"raan_deg":57.7903,"arg_perigee_deg":103.6997,"mean_anomaly_deg":256.5251,"bstar":0.00024347,"rev_number":9349,"period_min":100.81569333376,"perigee_km":790.46954221471,"apogee_km":804.03964279445,"semimajor_km":7175.3915925046,"source":"CELESTRAK","updated_at":"2026-05-25T13:38:02.414851Z"}}}